User: anonymous   Login
Location: Caltech
(34.1382°N, 118.1253°W)
Time: 03:11:50
(UTC-08:00)
Language:

SO-67 - Orbit

View from above orbital plane
View from above orbital plane
View from above satellite
View from above satellite

Ground track
Ground track

The orbit data is extracted from the following two-line orbital elements,

1 35870U 09049F   15061.12146534  .00011992  00000-0  31246-3 0  9995
2 35870 097.1446 079.9184 0001007 128.4818 316.5922 15.39003278303635
Epoch (UTC): 02 March 2015 02:54:54
Eccentricity: 0.0001007
inclination: 97.1446°
perigee height: 448 km
apogee height: 450 km
right ascension of ascending node: 79.9184°
argument of perigee: 128.4818°
revolutions per day: 15.39003278
mean anomaly at epoch: 316.5922°
orbit number at epoch: 30363

The dashed part of the orbit path shows where the satellite is in the earth's shadow,  

DLR